Погода в Нижнем Услоне

Россия / Республика Татарстан     55°41′47″N   48°58′05″E
темп.,
°C
ветер,
м/с
пор.,
м/с
влажн.,
%
обл.,
%
осадки,
мм/ч
давл.,
гПа
погр.,
м
8 марта, пн
пн800:00−6ю71494100 1.1 997822
03:00−5ю61394100 1.9 993699
06:00−3ююз71493100 1.8 991867
09:00−6з101685100 2.6 992867
12:00−5з8128310 0.0 996833
15:00−5з7108338 0.1 9981057
18:00−9зюз3489100 0.0 99961
21:00−12з239090 0.0 100021
9 марта, вт
вт900:00−13з359524 0.0 100290
03:00−14з369746 0.0 1005103
06:00−16з349869 0.0 100749
09:00−14зсз359671 0.0 1009206
12:00−10зсз238998 0.0 1010378
15:00−9зсз238999 0.1 1010496
18:00−12зсз2396100 0.2 101153
21:00−14с3795100 0.4 1012225
10 марта, ср
ср1000:00−16ссз359798 0.1 1012123
03:00−17ссз499698 0.1 1013263
06:00−21ссз499795 0.1 1015275
09:00−22ссз589698 0.1 1016320
12:00−19ссз5892100 0.0 1018466
15:00−18ссз598795 0.0 1019594
18:00−22ссз4109225 0.0 1021238
21:00−25сз359413 0.0 102287
11 марта, чт
чт1100:00−26сз33980 0.0 102244
03:00−26зсз359919 0.0 102383
06:00−25зсз489954 0.0 1023163
09:00−20зсз6109672 0.0 1023273
12:00−15зсз5893100 0.1 1023412
15:00−13зсз5792100 0.3 1023501
18:00−14зсз3696100 0.1 1024107
21:00−14зсз369891 0.1 1026113
12 марта, пт
пт1200:00−16зсз339744 0.0 102733
03:00−17зсз339722 0.0 102827
06:00−18з23980 0.0 103026
09:00−14з359410 0.0 1031191
12:00−10з34877 0.0 1030302
15:00−9зюз34904 0.0 1030277
18:00−14ююз33930 0.0 102921
21:00−16ююз33900 0.0 102929